Hourly Data Report for October 22, 2016

All times are specified in Local Standard Time (LST). Add 1 hour to adjust for Daylight Saving Time where and when it is observed.

KITCHENER/WATERLOO
ONTARIO

43°27'39.000" N
80°22'43.000" W
321.60 m
6144239
71368
YKF

Download Data

Hourly Data (October 2016)
Hourly Data Report for October 22, 2016
Temp Definition
°C
Dew Point Temp Definition
°C
Rel Hum Definition
%
Wind Dir Definition
10's deg

Wind Spd Definition
km/h
Visibility Definition
km
Stn Press Definition
kPa
Hmdx Definition


Wind Chill Definition


Weather Definition


TIME
00:00 Legend Double Dagger 2.8 1.5 91 31 18 16.1 97.39     LegendNANA
01:00 Legend Double Dagger 3.2 1.3 87 32 22 16.1 97.36     LegendNANA
02:00 Legend Double Dagger 3.1 0.7 84 32 18 16.1 97.36     LegendNANA
03:00 Legend Double Dagger 2.8 0.7 86 32 18 16.1 97.30     LegendNANA
04:00 Legend Double Dagger 2.9 0.5 84 32 22 16.1 97.27     LegendNANA
05:00 Legend Double Dagger 2.6 0.6 87 32 21 16.1 97.29     LegendNANA
06:00 Legend Double Dagger 2.0 0.2 88 32 24 16.1 97.28     LegendNANA
07:00 Legend Double Dagger 2.1 0.0 86 32 22 16.1 97.22     LegendNANA
08:00 Legend Double Dagger 3.0 0.5 84 32 22 16.1 97.22     LegendNANA
09:00 Legend Double Dagger 4.1 0.2 76 33 28 16.1 97.20     LegendNANA
10:00 Legend Double Dagger 5.1 0.7 73 33 32 16.1 97.21     LegendNANA
11:00 Legend Double Dagger 5.6 -0.3 66 32 34 16.1 97.22     LegendNANA
12:00 Legend Double Dagger 7.7 -0.6 56 31 43 16.1 97.17     LegendNANA
13:00 Legend Double Dagger 7.0 -1.0 57 31 34 16.1 97.17     LegendNANA
14:00 Legend Double Dagger 7.6 0.4 60 31 32 16.1 97.16     LegendNANA
15:00 Legend Double Dagger 6.1 -0.2 64 33 37 16.1 97.19     LegendNANA
16:00 Legend Double Dagger 5.4 -0.7 65 30 28 16.1 97.23     LegendNANA
17:00 Legend Double Dagger 5.3 0.0 69 30 28 16.1 97.25     LegendNANA
18:00 Legend Double Dagger 4.5 0.8 77 29 24 16.1 97.29     LegendNANA
19:00 Legend Double Dagger 4.1 1.8 85 29 21 16.1 97.31     LegendNANA
20:00 Legend Double Dagger 4.2 1.1 80 30 21 16.1 97.28     LegendNANA
21:00 Legend Double Dagger 4.2 1.1 80 28 22 16.1 97.29     LegendNANA
22:00 Legend Double Dagger 4.1 1.0 80 28 15 16.1 97.26     LegendNANA
23:00 Legend Double Dagger 4.5 1.4 80 28 22 16.1 97.25     LegendNANA

Notes on Data Quality.

Legend

  • E = Estimated
  • M = Missing
  • NA = Not Available
  • ‡ = Partner data that is not subject to review by the National Climate Archives
Date modified: